Flag for U.S.A. Weather past 2 weeks in Rochester, New York, U.S.A.

46 °F

Passing clouds.

Feels Like: 43 °F
Forecast: 50 / 60 °F
Wind: 6 mph from East

Location: Greater Rochester International Airport

Current Time: Oct 4, 2015 at 7:35:24 AM

Latest Report: Oct 4, 2015 at 6:54 AM

Visibility: 10 mi

Pressure: 30.37 "Hg

Humidity: 89%

Dew point: 43 °F

Location of RochesterLocation

Historic Weather in Rochester — Graph


Rochester temperature yesterday

Maximum temperature yesterday: 50 °F (at 3:54 PM)
Minimum temperature yesterday: 43 °F (at 5:54 AM)
Average temperature yesterday: 47 °F

Past Weeks' High & Low Weather Summary

High78 °F (Sep 19, 1:54 PM)97% (Sep 23, 3:54 AM)30.47 "Hg (Sep 23, 3:54 AM)
Low43 °F (Oct 3, 5:54 AM)38% (Sep 20, 5:54 PM)29.71 "Hg (Sep 19, 4:54 PM)
Average60 °F73%30.23 "Hg
* Reported Sep 19 5:54 AM — Oct 4 5:54 AM, Rochester, Weather by CustomWeather, © 2015

Note: Actual official high and low records may vary slightly from our data, if they occured in-between our weather recording intervals... More about our weather records


Rochester weather history for previous 24 hours

Time TempWeatherWind HumidityBarometerVisibility
5:54 AM
Sun, Oct 4
47 °FPassing clouds.6 mph83%30.36 "Hg10 mi
4:54 AM48 °FPassing clouds.7 mph83%30.36 "Hg10 mi
3:54 AM49 °FOvercast.6 mph80%30.35 "Hg10 mi
2:54 AM49 °FMostly cloudy.8 mph86%30.36 "Hg10 mi
1:54 AM48 °FMostly cloudy.8 mph86%30.37 "Hg10 mi
12:54 AM49 °FLight rain. Overcast.6 mph84%30.39 "Hg10 mi
10:54 PM
Sat, Oct 3
50 °FOvercast.8 mph74%30.40 "Hg10 mi
9:54 PM50 °FOvercast.10 mph71%30.40 "Hg10 mi
8:54 PM50 °FOvercast.6 mph71%30.41 "Hg10 mi
7:54 PM49 °FOvercast.8 mph74%30.40 "Hg10 mi
6:54 PM49 °FLight rain. Overcast.9 mph71%30.40 "Hg10 mi
5:54 PM49 °FLight rain. Overcast.14 mph71%30.39 "Hg10 mi
4:54 PM50 °FLight rain. Overcast.17 mph68%30.38 "Hg10 mi
3:54 PM50 °FLight rain. Overcast.15 mph66%30.38 "Hg10 mi
2:54 PM49 °FLight rain. Overcast.16 mph64%30.38 "Hg10 mi
1:54 PM48 °FOvercast.16 mph63%30.40 "Hg10 mi
12:54 PM47 °FLight rain. Mostly cloudy.15 mph66%30.41 "Hg10 mi
11:54 AM47 °FMostly cloudy.14 mph66%30.42 "Hg10 mi
10:54 AM45 °FMostly cloudy.15 mph71%30.42 "Hg10 mi
9:54 AM44 °FMostly cloudy.18 mph71%30.42 "Hg10 mi
8:54 AM43 °FPartly sunny.15 mph74%30.42 "Hg10 mi
7:54 AM43 °FPassing clouds.13 mph71%30.43 "Hg10 mi
Weather by CustomWeather, © 2015

See weather overviewHow to use our weather pages